When you browse on this site, cookies collect data to enhance your experience and personalize the content and advertising you see.
Visit our Privacy Policy to learn more. By continuing to use the site, you agree to this use of cookies and data.
  • In Sweden
  • List of Countries
  • For 7 days
  • Water Temperature
  • Weather Map
  • Weather Widgets
  • user-avatar
    Login

    Hourly Weather Rabat

    Today, 19 February, Wednesday

    Time Temperature Precipitation Wind Pressure Humidity
    00:00 +15°C° 0 mm 2 mps 767 mmHg 96%
    01:00 +15°C° 0 mm 2 mps 766 mmHg 96%
    02:00 +15°C° 0 mm 1 mps 766 mmHg 95%
    03:00 +16°C° 0 mm 1 mps 766 mmHg 94%
    04:00 +15°C° 0 mm 1 mps 766 mmHg 94%
    05:00 +14°C° 0 mm 1 mps 765 mmHg 94%
    06:00 +14°C° 0 mm 1 mps 765 mmHg 95%
    07:00 +15°C° 0 mm 1 mps 765 mmHg 89%
    08:00 +16°C° 0 mm 2 mps 765 mmHg 84%
    09:00 +17°C° 0 mm 2 mps 765 mmHg 79%
    10:00 +19°C° 0 mm 3 mps 765 mmHg 73%
    11:00 +20°C° 0 mm 3 mps 765 mmHg 68%
    12:00 +21°C° 0 mm 4 mps 764 mmHg 63%
    13:00 +22°C° 0 mm 5 mps 764 mmHg 61%
    14:00 +22°C° 0 mm 6 mps 763 mmHg 58%
    15:00 +23°C° 0 mm 6 mps 762 mmHg 56%
    16:00 +22°C° 0 mm 6 mps 762 mmHg 61%
    17:00 +20°C° 0 mm 6 mps 762 mmHg 66%
    18:00 +19°C° 0 mm 5 mps 762 mmHg 70%
    19:00 +17°C° 0 mm 5 mps 762 mmHg 74%
    20:00 +17°C° 0 mm 4 mps 762 mmHg 77%
    21:00 +14°C° 0 mm 3 mps 763 mmHg 81%
    22:00 +15°C° 0 mm 4 mps 762 mmHg 76%
    23:00 +15°C° 0 mm 4 mps 762 mmHg 71%

    Tomorrow, 20 February, Thursday

    Time Temperature Precipitation Wind Pressure Humidity
    00:00 +17°C° 0 mm 4 mps 762 mmHg 66%
    01:00 +15°C° 0 mm 4 mps 761 mmHg 70%
    02:00 +14°C° 0 mm 3 mps 761 mmHg 74%
    03:00 +13°C° 0 mm 3 mps 761 mmHg 78%
    04:00 +13°C° 0 mm 3 mps 761 mmHg 78%
    05:00 +14°C° 0 mm 2 mps 760 mmHg 78%
    06:00 +14°C° 0 mm 2 mps 760 mmHg 78%
    07:00 +16°C° 0 mm 2 mps 761 mmHg 73%
    08:00 +17°C° 0 mm 2 mps 761 mmHg 68%
    09:00 +19°C° 0 mm 2 mps 761 mmHg 63%
    10:00 +21°C° 0 mm 2 mps 761 mmHg 56%
    11:00 +24°C° 0 mm 2 mps 761 mmHg 50%
    12:00 +25°C° 0 mm 2 mps 761 mmHg 43%
    13:00 +25°C° 0 mm 3 mps 760 mmHg 47%
    14:00 +25°C° 0 mm 3 mps 760 mmHg 50%
    15:00 +25°C° 0 mm 4 mps 760 mmHg 54%
    16:00 +22°C° 0.1 mm 3 mps 760 mmHg 63%
    17:00 +19°C° 0.1 mm 3 mps 760 mmHg 72%
    18:00 +17°C° 0.1 mm 2 mps 761 mmHg 81%
    19:00 +17°C° 0.1 mm 3 mps 761 mmHg 76%
    20:00 +17°C° 0.1 mm 4 mps 762 mmHg 71%
    21:00 +17°C° 0.1 mm 4 mps 762 mmHg 67%
    22:00 +17°C° 0 mm 3 mps 762 mmHg 66%
    23:00 +16°C° 0 mm 2 mps 762 mmHg 66%

    Day after tomorrow, 21 February, Friday

    Time Temperature Precipitation Wind Pressure Humidity
    00:00 +16°C° 0 mm 2 mps 762 mmHg 66%
    01:00 +16°C° 0 mm 2 mps 762 mmHg 66%
    02:00 +14°C° 0 mm 3 mps 762 mmHg 66%
    03:00 +14°C° 0 mm 4 mps 761 mmHg 66%
    04:00 +13°C° 0 mm 4 mps 761 mmHg 68%
    05:00 +13°C° 0 mm 4 mps 761 mmHg 70%
    06:00 +12°C° 0 mm 4 mps 761 mmHg 72%
    13:00 +26°C° 0 mm 5 mps 762 mmHg 39%
    14:00 +27°C° 0 mm 5 mps 761 mmHg 38%
    15:00 +27°C° 0 mm 6 mps 761 mmHg 38%
    16:00 +26°C° 0 mm 6 mps 761 mmHg 44%
    17:00 +23°C° 0 mm 6 mps 761 mmHg 51%
    18:00 +21°C° 0 mm 6 mps 761 mmHg 57%
    19:00 +20°C° 0 mm 6 mps 762 mmHg 57%
    20:00 +18°C° 0 mm 7 mps 762 mmHg 57%
    21:00 +17°C° 0 mm 7 mps 763 mmHg 58%
    22:00 +16°C° 0 mm 7 mps 763 mmHg 56%
    23:00 +15°C° 0 mm 6 mps 763 mmHg 54%

    22 February, Saturday

    Time Temperature Precipitation Wind Pressure Humidity
    00:00 +15°C° 0 mm 6 mps 763 mmHg 52%
    01:00 +14°C° 0 mm 5 mps 763 mmHg 54%
    02:00 +13°C° 0 mm 5 mps 763 mmHg 56%
    03:00 +13°C° 0 mm 5 mps 763 mmHg 58%
    04:00 +13°C° 0 mm 5 mps 763 mmHg 56%
    05:00 +12°C° 0 mm 5 mps 763 mmHg 54%
    06:00 +12°C° 0 mm 5 mps 763 mmHg 53%
    07:00 +14°C° 0 mm 4 mps 763 mmHg 50%
    08:00 +17°C° 0 mm 4 mps 764 mmHg 47%
    09:00 +19°C° 0 mm 4 mps 764 mmHg 44%
    10:00 +21°C° 0 mm 4 mps 764 mmHg 39%
    11:00 +23°C° 0 mm 4 mps 764 mmHg 35%
    12:00 +26°C° 0 mm 3 mps 764 mmHg 31%
    13:00 +27°C° 0 mm 4 mps 763 mmHg 31%
    14:00 +27°C° 0 mm 4 mps 763 mmHg 31%
    15:00 +28°C° 0 mm 5 mps 762 mmHg 31%
    16:00 +26°C° 0 mm 5 mps 763 mmHg 40%
    17:00 +23°C° 0 mm 5 mps 763 mmHg 50%
    18:00 +21°C° 0 mm 5 mps 763 mmHg 59%
    19:00 +19°C° 0 mm 5 mps 763 mmHg 60%
    20:00 +17°C° 0 mm 5 mps 764 mmHg 61%
    21:00 +16°C° 0 mm 5 mps 764 mmHg 62%
    22:00 +15°C° 0 mm 4 mps 764 mmHg 61%
    23:00 +14°C° 0 mm 4 mps 764 mmHg 60%

    23 February, Sunday

    Time Temperature Precipitation Wind Pressure Humidity
    00:00 +14°C° 0 mm 4 mps 764 mmHg 59%
    01:00 +14°C° 0 mm 3 mps 764 mmHg 57%
    02:00 +14°C° 0 mm 3 mps 764 mmHg 56%
    03:00 +15°C° 0 mm 2 mps 763 mmHg 54%
    04:00 +15°C° 0 mm 2 mps 764 mmHg 52%
    05:00 +15°C° 0 mm 2 mps 764 mmHg 49%
    06:00 +15°C° 0 mm 2 mps 764 mmHg 47%
    07:00 +17°C° 0 mm 2 mps 764 mmHg 44%
    08:00 +19°C° 0 mm 2 mps 765 mmHg 41%
    09:00 +21°C° 0 mm 2 mps 765 mmHg 37%
    10:00 +24°C° 0 mm 1 mps 765 mmHg 33%
    11:00 +26°C° 0 mm 1 mps 765 mmHg 30%
    12:00 +28°C° 0 mm 1 mps 765 mmHg 26%
    13:00 +28°C° 0 mm 1 mps 765 mmHg 27%
    14:00 +28°C° 0 mm 2 mps 764 mmHg 29%
    15:00 +28°C° 0 mm 2 mps 764 mmHg 30%
    16:00 +26°C° 0 mm 2 mps 764 mmHg 38%
    17:00 +24°C° 0 mm 2 mps 764 mmHg 45%
    18:00 +20°C° 0 mm 2 mps 764 mmHg 53%
    19:00 +19°C° 0 mm 2 mps 765 mmHg 57%
    20:00 +18°C° 0 mm 2 mps 765 mmHg 61%
    21:00 +17°C° 0 mm 2 mps 766 mmHg 65%
    22:00 +16°C° 0 mm 1 mps 766 mmHg 65%
    23:00 +16°C° 0 mm 1 mps 766 mmHg 64%

    24 February, Monday

    Time Temperature Precipitation Wind Pressure Humidity
    00:00 +15°C° 0 mm 1 mps 766 mmHg 64%
    01:00 +15°C° 0 mm 1 mps 766 mmHg 63%
    02:00 +15°C° 0 mm 1 mps 766 mmHg 62%
    03:00 +15°C° 0 mm 1 mps 766 mmHg 60%
    04:00 +15°C° 0 mm 1 mps 765 mmHg 60%
    05:00 +15°C° 0 mm 1 mps 765 mmHg 59%
    06:00 +15°C° 0 mm 2 mps 765 mmHg 58%
    07:00 +17°C° 0 mm 2 mps 765 mmHg 52%
    08:00 +20°C° 0 mm 2 mps 766 mmHg 46%
    09:00 +23°C° 0 mm 2 mps 766 mmHg 40%
    10:00 +25°C° 0 mm 2 mps 766 mmHg 35%
    11:00 +28°C° 0 mm 2 mps 765 mmHg 29%
    12:00 +30°C° 0 mm 1 mps 765 mmHg 23%
    13:00 +30°C° 0 mm 2 mps 765 mmHg 24%
    14:00 +30°C° 0 mm 3 mps 764 mmHg 24%
    15:00 +30°C° 0 mm 4 mps 763 mmHg 25%
    16:00 +27°C° 0 mm 3 mps 764 mmHg 37%
    17:00 +24°C° 0 mm 3 mps 764 mmHg 49%
    18:00 +20°C° 0 mm 3 mps 764 mmHg 61%
    19:00 +19°C° 0 mm 3 mps 764 mmHg 66%
    20:00 +17°C° 0 mm 2 mps 765 mmHg 72%
    21:00 +16°C° 0 mm 1 mps 765 mmHg 77%
    22:00 +15°C° 0 mm 1 mps 766 mmHg 76%
    23:00 +15°C° 0 mm 1 mps 766 mmHg 76%
    Show more